This is the latest recevied weather packets stored in our database for station/object XE2KK-10. If no packets are shown the sender has not sent any weather packets the latest 10 day(s).
| Time | Temp. | Humidity | Pressure | Rain* | Wind** | Luminosity | Snow |
|---|---|---|---|---|---|---|---|
| 1777688053 | 19.44° C | 78% | 1014 hPa | 0 mm | - | 0 W/m² | - |
| 1777687753 | 19.44° C | 79% | 1014 hPa | 0 mm | - | 0 W/m² | - |
| 1777687453 | 19.44° C | 79% | 1014 hPa | 0 mm | - | 0 W/m² | - |
| 1777687152 | 19.44° C | 79% | 1013.7 hPa | 0 mm | - | 0 W/m² | - |
| 1777686853 | 19.44° C | 79% | 1013.6 hPa | 0 mm | - | 0 W/m² | - |
| 1777686553 | 19.44° C | 80% | 1013.6 hPa | 0 mm | - | 0 W/m² | - |
| 1777686253 | 19.44° C | 80% | 1013.6 hPa | 0 mm | - | 0 W/m² | - |
| 1777685953 | 19.44° C | 80% | 1013.6 hPa | 0 mm | - | 0 W/m² | - |
| 1777685652 | 19.44° C | 80% | 1013.7 hPa | 0 mm | - | 0 W/m² | - |
| 1777685352 | 19.44° C | 80% | 1013.6 hPa | 0 mm | - | 0 W/m² | - |
| 1777685052 | 19.44° C | 80% | 1013.4 hPa | 0 mm | - | 0 W/m² | - |
| 1777684753 | 19.44° C | 80% | 1013.6 hPa | 0 mm | - | 0 W/m² | - |
| 1777684453 | 19.44° C | 80% | 1013.3 hPa | 0 mm | - | 1 W/m² | - |
| 1777684153 | 19.44° C | 80% | 1013.1 hPa | 0 mm | - | 3 W/m² | - |
| 1777683852 | 19.44° C | 81% | 1013.3 hPa | 0 mm | - | 5 W/m² | - |
| 1777683552 | 19.44° C | 81% | 1013 hPa | 0 mm | - | 8 W/m² | - |
| 1777683253 | 19.44° C | 81% | 1012.8 hPa | 0 mm | - | 13 W/m² | - |
| 1777682953 | 19.44° C | 82% | 1013 hPa | 0 mm | - | 17 W/m² | - |
| 1777682653 | 19.44° C | 82% | 1012.7 hPa | 0 mm | - | 21 W/m² | - |
| 1777682353 | 19.44° C | 83% | 1012.8 hPa | 0 mm | - | 23 W/m² | - |
| 1777682052 | 19.44° C | 83% | 1012.7 hPa | 0 mm | - | 19 W/m² | - |
| 1777681752 | 19.44° C | 83% | 1012.7 hPa | 0 mm | - | 18 W/m² | - |
| 1777681454 | 18.89° C | 84% | 1012.4 hPa | 0 mm | - | 24 W/m² | - |
| 1777681153 | 18.89° C | 84% | 1012.5 hPa | 0 mm | - | 29 W/m² | - |
| 1777680853 | 18.89° C | 84% | 1012.4 hPa | 0 mm | - | 36 W/m² | - |
* Rain latest hour (hover to see other rain measurements)
** Current wind speed in m/s (hover to see current wind gust speed)